[[{"header":{"parameterUnit":"m.s-1","parameterCategory":1,"la1":30.2992,"la2":30.254,"lo1":-89.0895,"lo2":-89.0443,"dy":0.0025,"dx":0.0025,"nx":19,"ny":19,"refTime":"2026-05-14T21:00:00:Z","depth":0,"parameterNumber":2,"parameterNumberName":"U-component_of_WINDS"},"data":[0,0,0,0.2453,0.2455,0.2551,0.2551,0.267,0.2671,0,0,0,0,0,0,0,0,0,0,0,0.2421,0.2421,0.2453,0.2455,0.2551,0.2551,0.267,0.2671,0,0,0,0,0,0,0,0,0,0,0,0.2421,0.2421,0.2422,0.2456,0.2551,0.2551,0.267,0.2599,0,0,0,0,0,0,0,0,0,0,0.2508,0.2473,0.2421,0.2422,0.2456,0.2551,0.2551,0.2596,0.2604,0.2625,0,0.2641,0,0.2658,0.2679,0.2679,0,0,0,0.2459,0.2466,0.2496,0.2422,0.2457,0.255,0.2509,0.2601,0.2609,0.2635,0.2642,0.2647,0.266,0.268,0.268,0.2785,0.2785,0,0,0.2454,0.2436,0.249,0.2501,0.2483,0.2506,0.2512,0.2606,0.2613,0.2643,0.265,0.2662,0.268,0.2681,0.2785,0.2785,0,0,0,0.2436,0.2432,0.246,0.2496,0.2513,0.2508,0.2515,0.2609,0.2619,0.2651,0.2663,0.2681,0.2682,0.2784,0.2785,0.2783,0,0,0,0.2433,0.2422,0.2457,0.2447,0.2511,0.2562,0.2516,0.2613,0.2624,0.2662,0.2681,0.2684,0.2784,0.2785,0.2782,0.2786,0,0,0,0.2416,0.242,0.2432,0.2446,0.2486,0.2561,0.2577,0.2616,0.2631,0.2679,0.2684,0.2784,0.2784,0.2782,0.2785,0.2809,0,0,0,0.2393,0.243,0.2432,0.2478,0.2485,0.2558,0.2576,0.2632,0.2673,0.2682,0.2784,0.2785,0.2782,0.2784,0.2808,0.2826,0.2832,0,0,0.243,0.2434,0.2462,0.2467,0.2534,0.2545,0.2614,0.2669,0.269,0.2753,0.2756,0.2783,0.2785,0.2809,0.2868,0.2872,0,0,0,0.2468,0.2488,0.251,0.2547,0.2589,0.2626,0.2672,0.2693,0.2746,0.2718,0.2798,0.28,0.2814,0.2824,0.2828,0.2842,0.2788,0.2788,0.2788,0.2496,0.252,0.2569,0.2605,0.2641,0.2688,0.2721,0.2757,0.2772,0.279,0.2809,0.2842,0.2852,0.2855,0.287,0.282,0.282,0.282,0.282,0.2553,0.2586,0.2604,0.2658,0.2684,0.273,0.2778,0.2787,0.2835,0.2829,0.2844,0.2835,0.2859,0.2873,0.282,0.282,0.282,0.282,0.282,0.2575,0.2595,0.2618,0.2675,0.2716,0.2752,0.2797,0.282,0.2842,0.2856,0.2879,0.2879,0.2883,0.2865,0.2865,0.2865,0.2865,0.2865,0.2865,0.2588,0.2615,0.2649,0.2696,0.2723,0.2762,0.281,0.2839,0.2876,0.2889,0.2889,0.2903,0.2856,0.2844,0.2867,0.2867,0.2867,0.2867,0.2866,0.2639,0.2631,0.2684,0.2711,0.2769,0.281,0.2837,0.2893,0.292,0.2942,0.2953,0.2913,0.292,0.2917,0.2908,0.2946,0.2946,0.2946,0.2946,0.2659,0.2663,0.2723,0.2765,0.2809,0.2839,0.2901,0.2939,0.2978,0.2996,0.2994,0.2983,0.2979,0.2988,0.2984,0.2975,0.303,0.303,0.303,0.2692,0.2702,0.2749,0.2784,0.2831,0.2872,0.2931,0.2981,0.3023,0.3034,0.3012,0.3008,0.2991,0.2983,0.2995,0.2987,0.2973,0,0]},{"header":{"parameterUnit":"m.s-1","parameterCategory":1,"la1":30.2992,"la2":30.254,"lo1":-89.0895,"lo2":-89.0443,"dy":0.0025,"dx":0.0025,"nx":19,"ny":19,"refTime":"2026-05-14T21:00:00:Z","depth":0,"parameterNumber":3,"parameterNumberName":"V-component_of_WINDS"},"data":[0,0,0,-1.3851,-1.385,-1.3793,-1.3793,-1.3697,-1.3696,0,0,0,0,0,0,0,0,0,0,0,-1.3855,-1.3854,-1.3852,-1.385,-1.3793,-1.3793,-1.3697,-1.3696,0,0,0,0,0,0,0,0,0,0,0,-1.3855,-1.3854,-1.3852,-1.385,-1.3793,-1.3793,-1.3697,-1.3748,0,0,0,0,0,0,0,0,0,0,-1.3807,-1.3797,-1.3854,-1.3852,-1.3849,-1.3793,-1.3793,-1.3751,-1.3745,-1.3713,0,-1.3681,0,-1.3687,-1.3688,-1.3687,0,0,0,-1.3859,-1.3802,-1.3799,-1.3852,-1.3848,-1.3793,-1.3821,-1.3748,-1.3741,-1.3705,-1.368,-1.3677,-1.3685,-1.3687,-1.3687,-1.3475,-1.3474,0,0,-1.3862,-1.3836,-1.3804,-1.3794,-1.3802,-1.3823,-1.3819,-1.3744,-1.3715,-1.368,-1.3675,-1.3684,-1.3686,-1.3685,-1.3476,-1.3475,0,0,0,-1.3865,-1.3838,-1.3838,-1.3798,-1.3789,-1.3821,-1.3817,-1.3718,-1.3721,-1.3674,-1.3683,-1.3686,-1.3684,-1.3478,-1.3476,-1.3382,0,0,0,-1.3867,-1.384,-1.3839,-1.3822,-1.379,-1.3753,-1.3792,-1.3726,-1.3718,-1.3683,-1.3686,-1.3683,-1.348,-1.3477,-1.3388,-1.3341,0,0,0,-1.3863,-1.3839,-1.3827,-1.3821,-1.3796,-1.3755,-1.3753,-1.3725,-1.3723,-1.3687,-1.3683,-1.3481,-1.3477,-1.3393,-1.335,-1.3281,0,0,0,-1.385,-1.374,-1.3825,-1.3706,-1.3796,-1.3697,-1.3754,-1.3681,-1.3639,-1.3685,-1.3479,-1.3476,-1.3395,-1.3355,-1.3286,-1.3218,-1.3187,0,0,-1.3696,-1.372,-1.3653,-1.3727,-1.3607,-1.3708,-1.3575,-1.3559,-1.3578,-1.3508,-1.3504,-1.3386,-1.3351,-1.3282,-1.3021,-1.2996,0,0,0,-1.3595,-1.3547,-1.3521,-1.3482,-1.347,-1.3458,-1.3467,-1.3462,-1.3405,-1.3537,-1.3342,-1.3322,-1.3282,-1.3251,-1.323,-1.32,-1.346,-1.346,-1.3461,-1.3338,-1.3373,-1.3265,-1.3294,-1.3256,-1.327,-1.3242,-1.3239,-1.328,-1.3234,-1.3213,-1.3051,-1.3013,-1.2998,-1.2965,-1.3179,-1.3179,-1.3179,-1.3178,-1.3118,-1.3056,-1.3121,-1.304,-1.3077,-1.3009,-1.3019,-1.3053,-1.2995,-1.3068,-1.3035,-1.3113,-1.297,-1.2943,-1.3172,-1.3173,-1.3174,-1.3174,-1.3175,-1.2955,-1.2932,-1.2931,-1.2883,-1.2842,-1.2875,-1.2819,-1.2854,-1.2886,-1.2853,-1.2838,-1.2839,-1.2847,-1.2843,-1.2843,-1.2842,-1.2842,-1.2841,-1.2841,-1.2786,-1.2788,-1.2738,-1.2721,-1.2705,-1.2686,-1.2703,-1.2687,-1.2678,-1.2708,-1.2708,-1.2757,-1.2949,-1.2998,-1.2832,-1.2834,-1.2835,-1.2836,-1.2837,-1.2551,-1.2611,-1.2533,-1.2516,-1.2503,-1.2463,-1.251,-1.2475,-1.2467,-1.2439,-1.2496,-1.2632,-1.2658,-1.2675,-1.2716,-1.2488,-1.2488,-1.2488,-1.2488,-1.2414,-1.2432,-1.2364,-1.2336,-1.2312,-1.235,-1.2262,-1.2276,-1.2298,-1.2296,-1.2334,-1.2391,-1.2407,-1.2424,-1.2446,-1.2485,-1.2203,-1.2202,-1.2202,-1.2273,-1.2292,-1.221,-1.2237,-1.2231,-1.2225,-1.2145,-1.2111,-1.2149,-1.2192,-1.2296,-1.2308,-1.24,-1.2428,-1.2471,-1.2505,-1.2576,0,0]}]]